K5HAS Weather Reports


time (UTC)temp
F
wind
direction
speed
knots
gust
knots
rain 1hr
in
rain 24hr
in
rain mn
in
humidity
%
barometer
mb
20260502164109 66 30 11.3 18.2 0.00 0.00 0.00 83 1019.3
20260502163555 65 1 10.4 16.5 0.00 0.00 0.00 83 1019.3
20260502163050 65 16 10.4 16.5 0.00 0.00 0.00 84 1019.3
20260502162550 65 16 10.4 17.4 0.00 0.00 0.00 84 1019.4
20260502162050 65 19 10.4 17.4 0.00 0.00 0.00 84 1019.4
20260502161550 65 329 10.4 15.6 0.00 0.00 0.00 85 1019.4
20260502160551 64 357 8.7 15.6 0.00 0.00 0.00 85 1019.3
20260502160311 64 14 8.7 13.0 0.00 0.00 0.00 85 1019.3
20260502152004 61 24 9.6 15.6 0.00 0.00 0.00 86 1018.9
20260502151452 60 14 7.8 15.6 0.00 0.00 0.00 87 1018.9
20260502151219 60 49 8.7 15.6 0.00 0.00 0.00 87 1018.7
20260502150439 60 90 8.7 15.6 0.00 0.00 0.00 87 1018.7
20260502150207 60 3 8.7 14.8 0.00 0.00 0.00 87 1018.7
20260502130633 56 20 9.6 14.8 0.00 0.00 0.00 89 1017.6
20260502123411 56 359 9.6 15.6 0.00 0.00 0.00 89 1017.2
20260502122916 56 336 8.7 14.8 0.00 0.00 0.00 89 1017.1
20260502122401 56 345 7.8 13.9 0.00 0.00 0.00 89 1017.1
20260502121901 56 350 7.8 13.0 0.00 0.00 0.00 89 1017.1
20260502121401 56 5 7.8 13.9 0.00 0.00 0.00 89 1016.9
20260502120901 56 20 7.0 13.9 0.00 0.00 0.00 89 1016.9
20260502120359 56 347 6.1 13.9 0.00 0.00 0.00 89 1016.9
20260502115859 56 0 7.0 11.3 0.00 0.00 0.00 89 1016.6
20260502115358 56 338 7.0 11.3 0.00 0.00 0.00 89 1016.6
20260502114856 56 3 6.1 10.4 0.00 0.00 0.00 89 1016.6
20260502114357 56 31 7.0 11.3 0.00 0.00 0.00 89 1016.2
20260502114129 56 1 7.0 11.3 0.00 0.00 0.00 89 1016.2
20260502113355 56 346 7.0 11.3 0.00 0.00 0.00 89 1016.2
20260502112846 56 90 6.1 11.3 0.00 0.00 0.00 89 1016.1
20260502112335 56 4 6.1 11.3 0.00 0.00 0.00 89 1016.1
20260502111831 56 10 6.1 11.3 0.00 0.00 0.00 89 1016.1
20260502111331 56 13 6.1 12.2 0.00 0.00 0.00 89 1015.9
20260502110830 56 18 6.1 12.2 0.00 0.00 0.00 89 1015.9
20260502110330 56 90 7.8 12.2 0.00 0.00 0.00 89 1015.9
20260502105832 56 19 8.7 13.9 0.00 0.00 0.00 89 1015.6
20260502105602 56 9 7.8 13.9 0.00 0.00 0.00 89 1015.6
20260502104830 56 20 7.8 13.0 0.00 0.00 0.00 89 1015.6
20260502104551 56 5 7.0 12.2 0.00 0.00 0.00 89 1015.3
20260502103832 56 90 7.0 12.2 0.00 0.00 0.00 89 1015.3
20260502103331 56 35 7.0 11.3 0.00 0.00 0.00 89 1015.3
20260502103105 56 0 7.0 11.3 0.00 0.00 0.00 89 1015.1
20260502102325 56 351 6.1 10.4 0.00 0.00 0.00 89 1015.1
20260502101815 56 90 5.2 9.6 0.00 0.00 0.00 89 1015.1
20260502101305 56 90 5.2 8.7 0.00 0.00 0.00 89 1015.0
20260502100759 56 3 5.2 8.7 0.00 0.00 0.00 89 1015.0
20260502100250 56 4 4.3 7.0 0.00 0.00 0.00 89 1015.0
20260502091144 57 7 6.1 13.9 0.00 0.00 0.00 89 1014.8
20260502090645 57 340 6.1 13.9 0.00 0.00 0.00 89 1014.8
20260502090145 57 90 7.8 13.9 0.00 0.00 0.00 89 1014.8
20260502071049 57 1 8.7 13.0 0.00 0.00 0.00 89 1014.2
20260502070809 57 90 9.6 17.4 0.00 0.00 0.00 89 1014.2
20260502070047 57 12 9.6 17.4 0.00 0.00 0.00 89 1014.2
20260502065547 57 9 10.4 20.0 0.00 0.00 0.00 89 1014.3
20260502065045 57 90 11.3 20.0 0.00 0.00 0.00 89 1014.3
20260502064547 57 14 11.3 20.0 0.00 0.00 0.00 89 1014.3
20260502064045 57 3 9.6 20.0 0.00 0.00 0.00 89 1014.1
20260502063545 57 354 8.7 15.6 0.00 0.00 0.00 89 1014.1
20260502063034 57 5 9.6 15.6 0.00 0.00 0.00 89 1014.1
20260502062532 57 8 11.3 17.4 0.00 0.00 0.00 89 1014.0
20260502062027 57 344 12.2 18.2 0.00 0.00 0.00 89 1014.0
20260502061513 58 354 11.3 20.0 0.00 0.00 0.00 89 1014.0
20260502061003 58 16 11.3 20.0 0.00 0.00 0.00 89 1013.9
20260502060456 58 341 12.2 19.1 0.00 0.00 0.00 89 1013.9
20260502055953 58 342 12.2 20.9 0.00 0.00 0.00 90 1013.9
20260502055727 58 8 10.4 20.9 0.00 0.00 0.00 90 1013.8
20260502054955 57 90 10.4 15.6 0.00 0.00 0.00 90 1013.8
20260502054453 57 349 9.6 15.6 0.00 0.00 0.00 89 1013.8
20260502053954 57 90 8.7 16.5 0.00 0.00 0.00 89 1013.7
20260502053717 57 1 7.8 16.5 0.00 0.00 0.00 90 1013.7
20260502052954 57 8 8.7 16.5 0.00 0.00 0.00 90 1013.7
20260502052454 57 344 9.6 16.5 0.00 0.00 0.00 90 1013.5
20260502052213 57 0 9.6 16.5 0.00 0.00 0.00 90 1013.5
20260502051455 57 11 9.6 15.6 0.00 0.00 0.00 90 1013.5
20260502051212 57 11 10.4 19.1 0.00 0.00 0.00 90 1013.3
20260502050659 57 26 11.3 19.1 0.00 0.00 0.00 90 1013.3
20260502045930 57 4 11.3 20.9 0.00 0.00 0.00 90 1013.0
20260502045416 57 43 12.2 20.9 0.00 0.00 0.00 90 1013.0
20260502044906 57 7 13.0 20.9 0.00 0.00 0.00 90 1013.0
20260502044400 57 90 12.2 20.9 0.00 0.00 0.00 90 1012.9
20260502043849 57 90 12.2 20.0 0.00 0.00 0.00 90 1012.9
20260502043336 58 26 12.2 20.0 0.00 0.00 0.00 90 1012.9
20260502042842 58 14 13.0 20.9 0.00 0.00 0.00 90 1012.9
20260502042542 58 90 13.0 20.9 0.00 0.00 0.00 90 1012.9
20260502041809 58 13 13.0 20.9 0.00 0.00 0.00 90 1012.9
20260502041534 58 16 12.2 20.0 0.00 0.00 0.00 90 1012.8
20260502040750 58 344 13.0 20.9 0.00 0.00 0.00 90 1012.8
20260502040244 58 7 13.0 21.7 0.00 0.00 0.00 90 1012.8
20260502035735 58 7 12.2 21.7 0.00 0.00 0.00 90 1012.8
20260502035509 59 356 11.3 20.0 0.00 0.00 0.00 90 1012.8
20260502034734 59 18 11.3 18.2 0.00 0.00 0.00 90 1012.8
20260502034452 59 350 11.3 21.7 0.00 0.00 0.00 90 1012.5
20260502034005 59 19 12.2 21.7 0.00 0.00 0.00 90 1012.5
20260502033500 59 20 12.2 21.7 0.00 0.00 0.00 90 1012.5
20260502032235 60 336 10.4 20.9 0.00 0.00 0.00 90 1012.4
20260502031734 60 19 10.4 20.9 0.00 0.00 0.00 90 1012.4
20260502031238 60 355 11.3 17.4 0.00 0.00 0.00 90 1012.1
20260502030735 60 23 10.4 19.1 0.00 0.00 0.00 90 1012.1
20260502030452 60 31 10.4 19.1 0.00 0.00 0.00 90 1012.1
20260502025719 60 1 9.6 19.1 0.00 0.00 0.00 90 1011.7
20260502025214 60 5 9.6 17.4 0.00 0.00 0.00 90 1011.7
20260502024715 60 353 9.6 14.8 0.00 0.00 0.00 90 1011.7
20260502024213 60 339 9.6 15.6 0.00 0.00 0.00 90 1011.4
20260502023717 60 2 9.6 18.2 0.00 0.00 0.00 90 1011.4
20260502023216 60 5 10.4 18.2 0.00 0.00 0.00 90 1011.4
20260502022714 60 14 9.6 18.2 0.00 0.00 0.00 90 1011.0
20260502022215 60 355 9.6 18.2 0.00 0.00 0.00 91 1011.0
20260502021715 60 359 9.6 18.2 0.00 0.00 0.00 91 1011.0
20260502021214 60 3 9.6 18.2 0.00 0.00 0.00 90 1010.8
20260502020715 60 18 9.6 18.2 0.00 0.00 0.00 90 1010.8
20260502020429 60 9 9.6 17.4 0.00 0.00 0.00 90 1010.8
20260502015702 61 359 10.4 17.4 0.00 0.00 0.00 90 1010.4
20260502015202 61 12 10.4 17.4 0.00 0.00 0.00 90 1010.4
20260502014702 61 341 9.6 15.6 0.00 0.00 0.00 90 1010.4
20260502014207 61 349 9.6 15.6 0.00 0.00 0.00 90 1009.9
20260502013703 61 342 10.4 15.6 0.00 0.00 0.00 90 1009.9
20260502013206 61 13 9.6 15.6 0.00 0.00 0.00 90 1009.9
20260502012704 61 31 10.4 16.5 0.00 0.00 0.00 90 1010.0
20260502012151 61 11 9.6 16.5 0.00 0.00 0.00 90 1010.0
20260502011636 61 3 9.6 16.5 0.00 0.00 0.00 90 1010.0
20260502011135 61 17 9.6 16.5 0.00 0.00 0.00 90 1009.6
20260502010859 61 18 9.6 16.5 0.00 0.00 0.00 90 1009.6
20260502010136 61 14 9.6 16.5 0.00 0.00 0.00 90 1009.6
20260502005636 61 11 10.4 19.1 0.00 0.00 0.00 90 1009.3
20260502005135 61 359 12.2 19.1 0.00 0.00 0.00 90 1009.3
20260502004638 62 26 11.3 18.2 0.00 0.00 0.00 90 1009.3
20260502004134 62 347 11.3 17.4 0.00 0.00 0.00 90 1009.7
20260502003635 62 9 13.0 20.0 0.00 0.00 0.00 90 1009.7
20260502003135 62 338 13.0 21.7 0.00 0.00 0.00 90 1009.7
20260502002638 62 356 13.0 21.7 0.00 0.00 0.00 90 1009.4
20260502002129 62 355 13.0 21.7 0.00 0.00 0.00 90 1009.4
20260502001623 62 352 12.2 20.0 0.00 0.00 0.00 90 1009.4
20260502001113 62 18 12.2 20.0 0.00 0.00 0.00 90 1009.2
20260502000602 62 339 12.2 20.0 0.00 0.00 0.00 90 1009.2
20260502000319 62 356 11.3 20.0 0.00 0.00 0.00 90 1009.2
20260501235812 63 354 12.2 20.0 0.00 0.00 0.00 90 1009.2
20260501235046 63 90 12.2 20.0 0.00 0.00 0.00 90 1009.2
20260501234547 63 336 12.2 21.7 0.00 0.00 0.00 90 1009.2
20260501234046 63 22 13.0 21.7 0.00 0.00 0.00 90 1008.2
20260501233547 63 3 12.2 20.0 0.00 0.00 0.00 90 1008.2
20260501233045 63 3 13.0 20.0 0.00 0.00 0.00 90 1008.2
20260501232547 63 29 13.9 26.9 0.00 0.00 0.00 90 1008.1
20260501232046 63 12 14.8 26.9 0.00 0.00 0.00 90 1008.1
20260501231547 63 15 16.5 32.2 0.00 0.00 0.00 90 1008.1
20260501231047 64 341 15.6 32.2 0.00 0.00 0.00 90 1008.1
20260501230546 64 342 16.5 32.2 0.00 0.00 0.00 90 1008.1
20260501230046 64 342 19.1 32.2 0.00 0.00 0.00 90 1008.1
20260501225541 64 327 13.9 25.2 0.00 0.00 0.00 90 1006.1
20260501225259 64 334 11.3 17.4 0.00 0.00 0.00 90 1006.1
20260501224533 64 15 11.3 16.5 0.00 0.00 0.00 90 1006.1
20260501224033 64 19 11.3 20.0 0.00 0.00 0.00 90 1005.1
20260501223533 64 45 11.3 20.0 0.00 0.00 0.00 90 1005.1
20260501223254 64 60 11.3 18.2 0.00 0.00 0.00 90 1005.1
20260501222533 64 53 12.2 18.2 0.00 0.00 0.00 90 1006.5
20260501222035 64 22 11.3 18.2 0.00 0.00 0.00 90 1006.5
20260501221535 64 21 10.4 16.5 0.00 0.00 0.00 90 1006.5
20260501221033 64 53 9.6 13.9 0.00 0.00 0.00 90 1006.7
20260501220533 64 11 8.7 13.0 0.00 0.00 0.00 90 1006.7
20260501220034 64 41 7.8 13.0 0.00 0.00 0.00 90 1006.7
20260501215529 65 30 7.0 10.4 0.00 0.00 0.00 90 1006.6
20260501215030 65 43 7.8 15.6 0.00 0.00 0.00 90 1006.6
20260501214528 65 31 9.6 15.6 0.00 0.00 0.00 90 1006.6
20260501214029 64 28 11.3 15.6 0.00 0.00 0.00 90 1006.8
20260501213529 64 36 12.2 19.1 0.00 0.00 0.00 90 1006.8
20260501213028 64 31 11.3 19.1 0.00 0.00 0.00 90 1006.8
20260501212533 65 13 11.3 18.2 0.00 0.00 0.00 90 1007.0
20260501212300 65 49 11.3 20.9 0.00 0.00 0.00 90 1007.0
20260501211749 65 20 11.3 20.9 0.00 0.00 0.00 90 1007.0
20260501211012 65 16 12.2 20.9 0.00 0.00 0.00 90 1006.7
20260501210511 65 90 13.0 20.9 0.00 0.00 0.00 90 1006.7
20260501210011 65 18 13.0 19.1 0.00 0.00 0.00 90 1006.7
20260501205511 65 18 13.0 19.1 0.00 0.00 0.00 90 1006.7
20260501205238 65 21 13.0 19.1 0.00 0.00 0.00 90 1006.7
20260501204510 65 23 12.2 19.1 0.00 0.00 0.00 90 1006.7
20260501204012 65 15 10.4 15.6 0.00 0.00 0.00 90 1007.1
20260501203510 65 19 9.6 14.8 0.00 0.00 0.00 90 1007.1
20260501203010 65 31 8.7 13.0 0.00 0.00 0.00 90 1007.1
20260501202512 65 23 8.7 17.4 0.00 0.00 0.00 90 1007.7
20260501202006 65 9 8.7 17.4 0.00 0.00 0.00 90 1007.7
20260501201455 65 8 10.4 17.4 0.00 0.00 0.00 90 1007.7
20260501200946 65 33 11.3 17.4 0.00 0.00 0.00 90 1006.7
20260501200435 65 359 9.6 17.4 0.00 0.00 0.00 90 1006.7
20260501195930 65 344 7.0 15.6 0.00 0.00 0.00 90 1005.0
20260501195420 65 359 7.0 12.2 0.00 0.00 0.00 90 1005.0
20260501195143 65 11 7.0 12.2 0.00 0.00 0.00 90 1005.0
20260501194408 65 72 5.2 13.9 0.00 0.00 0.00 89 1006.1
20260501193902 65 222 5.2 13.9 0.00 0.00 0.00 90 1006.1
20260501193617 65 270 7.0 20.0 0.00 0.00 0.00 89 1006.1
20260501192842 65 7 11.3 20.0 0.00 0.00 0.00 89 1002.7
20260501192332 65 16 13.9 21.7 0.00 0.00 0.00 89 1002.7
20260501191825 65 46 13.9 22.6 0.00 0.00 0.00 89 1002.7
20260501191312 65 34 11.3 22.6 0.00 0.00 0.00 89 1004.2
20260501190806 65 63 10.4 19.1 0.00 0.00 0.00 89 1004.2
20260501190255 65 57 10.4 19.1 0.00 0.00 0.00 89 1004.2
20260501185750 65 63 10.4 19.1 0.00 0.00 0.00 89 1005.1
20260501185248 65 39 9.6 19.1 0.00 0.00 0.00 89 1005.1
20260501184747 65 42 7.8 16.5 0.00 0.00 0.00 89 1005.1
20260501184247 65 30 8.7 14.8 0.00 0.00 0.00 89 1006.3
20260501184005 65 21 9.6 14.8 0.00 0.00 0.00 89 1006.3
20260501183246 65 57 9.6 20.9 0.00 0.00 0.00 89 1006.3
20260501182747 65 46 10.4 20.9 0.00 0.00 0.00 89 1006.1
20260501182246 65 28 13.0 20.9 0.00 0.00 0.00 89 1006.1
20260501181746 65 28 13.0 20.9 0.00 0.00 0.00 89 1006.1
20260501181247 65 31 12.2 16.5 0.00 0.00 0.00 89 1007.3
20260501180747 65 35 10.4 16.5 0.00 0.00 0.00 89 1007.3
20260501180246 65 23 7.8 13.0 0.00 0.00 0.00 89 1007.3
20260501180012 65 16 7.8 12.2 0.00 0.00 0.00 89 1006.7
20260501175242 65 20 9.6 13.9 0.00 0.00 0.00 89 1006.7
20260501174731 65 26 10.4 16.5 0.00 0.00 0.00 89 1006.7
20260501174227 65 35 10.4 16.5 0.00 0.00 0.00 89 1006.6
20260501173730 65 26 11.3 18.2 0.00 0.00 0.00 89 1006.6
20260501173227 65 28 10.4 18.2 0.00 0.00 0.00 89 1006.6
20260501172729 65 41 8.7 14.8 0.00 0.00 0.00 89 1006.9
20260501172226 65 30 8.7 14.8 0.00 0.00 0.00 89 1006.9
20260501171953 65 40 9.6 14.8 0.00 0.00 0.00 89 1006.9